Погода в Морозовой

Россия / Иркутская область     53°11′51″N   103°31′06″E
темп.,
°C
ветер,
м/с
пор.,
м/с
влажн.,
%
обл.,
%
осадки,
мм/ч
давл.,
гПа
погр.,
м
20 января, чт
чт2023:00−12всв1197100 0.3 102810
02:00−11вюв1196100 0.6 102854
05:00−13юв119882 0.3 10289
08:00−15ююв1198100 0.3 10319
11:00−12ю119592 0.1 103067
14:00−10ююз109099 0.1 1030205
17:00−14ююз119844 0.0 10329
20:00−19ссв0010091 0.0 10349
21 января, пт
пт2123:00−22всв11100100 0.0 10369
02:00−24всв11100100 0.1 10379
05:00−24всв11100100 0.1 10389
08:00−24всв11100100 0.1 10399
11:00−19с00100100 0.1 103937
14:00−15з109499 0.1 1036133
17:00−17ссз1198100 0.0 10369
20:00−19с11100100 0.0 10379
22 января, сб
сб2223:00−19ссв1199100 0.0 10379
02:00−17ссв1197100 0.0 103618
05:00−16ссв1197100 0.1 103630
08:00−16св1198100 0.3 103616
11:00−14св119499 0.2 103692
14:00−12св0190100 0.4 1035273
17:00−12с1196100 0.1 103418
20:00−14с1197100 0.3 103525
23 января, вс
вс2323:00−14с1297100 0.3 103639
02:00−13с1197100 0.6 103531
05:00−13сз1197100 0.4 103520
08:00−14сз1197100 0.8 103512
11:00−13сз1194100 0.3 1036132
14:00−11зсз1290100 0.6 1035318
17:00−11сз1196100 0.2 103517
20:00−13зсз1197100 0.4 10369
24 января, пн
пн2423:00−14зюз1197100 0.2 10369
02:00−15зюз1198100 0.4 103610
05:00−16юз1198100 0.2 10369
08:00−16юз1198100 0.3 10379
11:00−13з1194100 0.1 1037101
14:00−12сз2289100 0.2 1036355
17:00−12ссз2295100 0.1 103663
20:00−15зсз1198100 0.1 10389